Location: Coopersdale
(40.3556°N, 78.9372°W)
Time: 00:43:27
(UTC+00:00)

Vanguard 1 - Pass Details

Date: 25 January 2021
Orbit: 649 x 3834 km, 34.2° (Epoch: 06 March)

Event Time Altitude Azimuth Distance (km) Brightness Sun altitude
Rises 02:03:31 0° 284° (WNW) 7,891 15.5 -41.5°
Reaches altitude 10° 02:11:43 10° 270° (W) 6,550 14.8 -43.0°
Maximum altitude 02:23:12 18° 235° (SW) 5,067 13.9 -45.1°
Drops below altitude 10° 02:32:08 10° 197° (SSW) 4,898 13.6 -46.8°
Enters shadow 02:34:57 - 187° (S) 5,114 13.6 -47.3°
